Portada
METAR-TAF:

METAR-TAF

Aeroports :

Aeroport Internacional de Singapur-Changi

Singapur, Singapur

latitud: 01-22N, longitud: 103-59E, altitud: 5 m

Observació

L'informe es va fer fa 10 minuts, a les 13:30 UTC
Vent 3 kt del Nord/Nord-Est, variant entre Nord i Est/Nord-Est
Temperatura 29°C
Humitat 74%
Pressió 1010 hPa
Visibilitat 10 km o més
Escasses núvols a una alçada de 1800 ft
Cel ennuvolat a una alçada de 30000 ft

METAR: WSSS 071330Z 03003KT 010V070 9999 FEW018 BKN300 29/24 Q1010 NOSIG

Hora: 21:40 (13:40 UTC)

Pronòstic

L'informe es va fer fa 2 hores i 40 minuts, a les 11:00 UTC
Pronòstic vàlid del 07 a les 12 UTC al 08 a les 18 UTC
Vent 7 kt del Nord/Nord-Est
Visibilitat 10 km o més
Escasses núvols a una alçada de 1500 ft
Núvols disperses a una alçada de 2000 ft

TAF: WSSS 071100Z 0712/0818 02007KT 9999 FEW015 SCT020

Observacions i pronòstics meteorològics de més de 4000 aeroports (METAR i TAF).

Les estacions disponibles són els punts grocs i vermells al mapa.

Posi el ratolí al punt desitjat per veure el nom de l'estació.

Feu clic per veure les observacions i els pronòstics meteorològics.

Per canviar el mapa: feu clic els botons verds amb una creu de color negre per apropar; al botó verd amb un guió per allunyar la imatge; o en les fletxes verdes per a mapes adjacents.


METAR-TAF: